Year,Month,Day,Hour,Minute,Value (Times are PST for temperature in C)
2012,08,15,00,00,15.70
2012,08,15,00,01,15.70
2012,08,15,00,02,15.70
2012,08,15,00,03,15.70
2012,08,15,00,04,15.70
2012,08,15,00,05,15.70
2012,08,15,00,06,15.70
2012,08,15,00,07,15.70
2012,08,15,00,08,15.70
2012,08,15,00,09,15.70
2012,08,15,00,10,15.70
2012,08,15,00,11,15.70
2012,08,15,00,12,15.70
2012,08,15,00,13,15.70
2012,08,15,00,14,15.70
2012,08,15,00,15,15.60
2012,08,15,00,16,15.60
2012,08,15,00,17,15.60
2012,08,15,00,18,15.60
2012,08,15,00,19,15.60
2012,08,15,00,20,15.60
2012,08,15,00,21,15.60
2012,08,15,00,22,15.60
2012,08,15,00,23,15.60
2012,08,15,00,24,15.60
2012,08,15,00,25,15.60
2012,08,15,00,26,15.60
2012,08,15,00,27,15.70
2012,08,15,00,28,15.70
2012,08,15,00,29,15.70
2012,08,15,00,30,15.70
2012,08,15,00,31,15.80
2012,08,15,00,32,15.80
2012,08,15,00,33,15.80
2012,08,15,00,34,15.90
2012,08,15,00,35,15.90
2012,08,15,00,36,16.00
2012,08,15,00,37,16.00
2012,08,15,00,38,16.10
2012,08,15,00,39,16.10
2012,08,15,00,40,16.10
2012,08,15,00,41,16.20
2012,08,15,00,42,16.20
2012,08,15,00,43,16.20
2012,08,15,00,44,16.30
2012,08,15,00,45,16.30
2012,08,15,00,46,16.30
2012,08,15,00,47,16.30
2012,08,15,00,48,16.30
2012,08,15,00,49,16.30
2012,08,15,00,50,16.20
2012,08,15,00,51,16.20
2012,08,15,00,52,16.10
2012,08,15,00,53,16.10
2012,08,15,00,54,16.10
2012,08,15,00,55,16.10
2012,08,15,00,56,16.00
2012,08,15,00,57,16.00
2012,08,15,00,58,15.90
2012,08,15,00,59,15.90
2012,08,15,01,00,15.90
2012,08,15,01,01,15.90
2012,08,15,01,02,15.90
2012,08,15,01,03,15.90
2012,08,15,01,04,15.90
2012,08,15,01,05,15.90
2012,08,15,01,06,15.90
2012,08,15,01,07,15.90
2012,08,15,01,08,15.90
2012,08,15,01,09,15.90
2012,08,15,01,10,15.90
2012,08,15,01,11,15.90
2012,08,15,01,12,15.90
2012,08,15,01,13,16.00
2012,08,15,01,14,16.10
2012,08,15,01,15,16.20
2012,08,15,01,16,16.20
2012,08,15,01,17,16.30
2012,08,15,01,18,16.30
2012,08,15,01,19,16.30
2012,08,15,01,20,16.40
2012,08,15,01,21,16.50
2012,08,15,01,22,16.60
2012,08,15,01,23,16.70
2012,08,15,01,24,16.70
2012,08,15,01,25,16.80
2012,08,15,01,26,16.80
2012,08,15,01,27,16.80
2012,08,15,01,28,16.80
2012,08,15,01,29,16.70
2012,08,15,01,30,16.70
2012,08,15,01,31,16.60
2012,08,15,01,32,16.50
2012,08,15,01,33,16.50
2012,08,15,01,34,16.40
2012,08,15,01,35,16.40
2012,08,15,01,36,16.40
2012,08,15,01,37,16.50
2012,08,15,01,38,16.60
2012,08,15,01,39,16.60
2012,08,15,01,40,16.60
2012,08,15,01,41,16.70
2012,08,15,01,42,16.80
2012,08,15,01,43,16.90
2012,08,15,01,44,17.10
2012,08,15,01,45,17.10
2012,08,15,01,46,17.20
2012,08,15,01,47,17.20
2012,08,15,01,48,17.40
2012,08,15,01,49,17.50
2012,08,15,01,50,17.60
2012,08,15,01,51,17.70
2012,08,15,01,52,17.80
2012,08,15,01,53,17.80
2012,08,15,01,54,17.90
2012,08,15,01,55,18.00
2012,08,15,01,56,18.10
2012,08,15,01,57,18.20
2012,08,15,01,58,18.30
2012,08,15,01,59,18.40
2012,08,15,02,00,18.40
2012,08,15,02,01,18.50
2012,08,15,02,02,18.50
2012,08,15,02,03,18.50
2012,08,15,02,04,18.60
2012,08,15,02,05,18.60
2012,08,15,02,06,18.60
2012,08,15,02,07,18.60
2012,08,15,02,08,18.50
2012,08,15,02,09,18.40
2012,08,15,02,10,18.30
2012,08,15,02,11,18.30
2012,08,15,02,12,18.20
2012,08,15,02,13,18.20
2012,08,15,02,14,18.20
2012,08,15,02,15,18.30
2012,08,15,02,16,18.30
2012,08,15,02,17,18.40
2012,08,15,02,18,18.40
2012,08,15,02,19,18.50
2012,08,15,02,20,18.50
2012,08,15,02,21,18.60
2012,08,15,02,22,18.60
2012,08,15,02,23,18.70
2012,08,15,02,24,18.70
2012,08,15,02,25,18.80
2012,08,15,02,26,18.80
2012,08,15,02,27,18.80
2012,08,15,02,28,18.80
2012,08,15,02,29,18.90
2012,08,15,02,30,18.90
2012,08,15,02,31,19.00
2012,08,15,02,32,19.10
2012,08,15,02,33,19.10
2012,08,15,02,34,19.10
2012,08,15,02,35,19.10
2012,08,15,02,36,19.20
2012,08,15,02,37,19.20
2012,08,15,02,38,19.20
2012,08,15,02,39,19.20
2012,08,15,02,40,19.20
2012,08,15,02,41,19.20
2012,08,15,02,42,19.20
2012,08,15,02,43,19.20
2012,08,15,02,44,19.20
2012,08,15,02,45,19.30
2012,08,15,02,46,19.30
2012,08,15,02,47,19.30
2012,08,15,02,48,19.30
2012,08,15,02,49,19.30
2012,08,15,02,50,19.40
2012,08,15,02,51,19.40
2012,08,15,02,52,19.40
2012,08,15,02,53,19.40
2012,08,15,02,54,19.40
2012,08,15,02,55,19.40
2012,08,15,02,56,19.40
2012,08,15,02,57,19.40
2012,08,15,02,58,19.40
2012,08,15,02,59,19.40
2012,08,15,03,00,19.40
2012,08,15,03,01,19.40
2012,08,15,03,02,19.50
2012,08,15,03,03,19.60
2012,08,15,03,04,19.60
2012,08,15,03,05,19.50
2012,08,15,03,06,19.50
2012,08,15,03,07,19.40
2012,08,15,03,08,19.40
2012,08,15,03,09,19.40
2012,08,15,03,10,19.30
2012,08,15,03,11,19.30
2012,08,15,03,12,19.30
2012,08,15,03,13,19.20
2012,08,15,03,14,19.20
2012,08,15,03,15,19.20
2012,08,15,03,16,19.20
2012,08,15,03,17,19.30
2012,08,15,03,18,19.30
2012,08,15,03,19,19.30
2012,08,15,03,20,19.30
2012,08,15,03,21,19.20
2012,08,15,03,22,19.10
2012,08,15,03,23,19.00
2012,08,15,03,24,19.00
2012,08,15,03,25,18.90
2012,08,15,03,26,18.90
2012,08,15,03,27,18.80
2012,08,15,03,28,18.80
2012,08,15,03,29,18.90
2012,08,15,03,30,18.90
2012,08,15,03,31,18.90
2012,08,15,03,32,18.90
2012,08,15,03,33,18.80
2012,08,15,03,34,18.80
2012,08,15,03,35,18.70
2012,08,15,03,36,18.50
2012,08,15,03,37,18.50
2012,08,15,03,38,18.40
2012,08,15,03,39,18.30
2012,08,15,03,40,18.30
2012,08,15,03,41,18.30
2012,08,15,03,42,18.30
2012,08,15,03,43,18.20
2012,08,15,03,44,18.20
2012,08,15,03,45,18.10
2012,08,15,03,46,18.10
2012,08,15,03,47,18.20
2012,08,15,03,48,18.30
2012,08,15,03,49,18.40
2012,08,15,03,50,18.40
2012,08,15,03,51,18.40
2012,08,15,03,52,18.30
2012,08,15,03,53,18.30
2012,08,15,03,54,18.40
2012,08,15,03,55,18.50
2012,08,15,03,56,18.70
2012,08,15,03,57,18.80
2012,08,15,03,58,18.90
2012,08,15,03,59,18.80
2012,08,15,04,00,18.80
2012,08,15,04,01,18.70
2012,08,15,04,02,18.70
2012,08,15,04,03,18.70
2012,08,15,04,04,18.70
2012,08,15,04,05,18.70
2012,08,15,04,06,18.60
2012,08,15,04,07,18.60
2012,08,15,04,08,18.50
2012,08,15,04,09,18.40
2012,08,15,04,10,18.30
2012,08,15,04,11,18.30
2012,08,15,04,12,18.40
2012,08,15,04,13,18.40
2012,08,15,04,14,18.50
2012,08,15,04,15,18.60
2012,08,15,04,16,18.60
2012,08,15,04,17,18.70
2012,08,15,04,18,18.70
2012,08,15,04,19,18.70
2012,08,15,04,20,18.60
2012,08,15,04,21,18.60
2012,08,15,04,22,18.60
2012,08,15,04,23,18.50
2012,08,15,04,24,18.50
2012,08,15,04,25,18.50
2012,08,15,04,26,18.50
2012,08,15,04,27,18.50
2012,08,15,04,28,18.50
2012,08,15,04,29,18.50
2012,08,15,04,30,18.50
2012,08,15,04,31,18.60
2012,08,15,04,32,18.60
2012,08,15,04,33,18.60
2012,08,15,04,34,18.70
2012,08,15,04,35,18.70
2012,08,15,04,36,18.60
2012,08,15,04,37,18.60
2012,08,15,04,38,18.60
2012,08,15,04,39,18.60
2012,08,15,04,40,18.60
2012,08,15,04,41,18.70
2012,08,15,04,42,18.70
2012,08,15,04,43,18.70
2012,08,15,04,44,18.70
2012,08,15,04,45,18.70
2012,08,15,04,46,18.70
2012,08,15,04,47,18.60
2012,08,15,04,48,18.60
2012,08,15,04,49,18.50
2012,08,15,04,50,18.50
2012,08,15,04,51,18.50
2012,08,15,04,52,18.40
2012,08,15,04,53,18.40
2012,08,15,04,54,18.30
2012,08,15,04,55,18.30
2012,08,15,04,56,18.30
2012,08,15,04,57,18.20
2012,08,15,04,58,18.20
2012,08,15,04,59,18.20
2012,08,15,05,00,18.20
2012,08,15,05,01,18.20
2012,08,15,05,02,18.20
2012,08,15,05,03,18.20
2012,08,15,05,04,18.20
2012,08,15,05,05,18.20
2012,08,15,05,06,18.20
2012,08,15,05,07,18.20
2012,08,15,05,08,18.10
2012,08,15,05,09,18.10
2012,08,15,05,10,18.10
2012,08,15,05,11,18.00
2012,08,15,05,12,17.90
2012,08,15,05,13,17.90
2012,08,15,05,14,17.90
2012,08,15,05,15,17.80
2012,08,15,05,16,17.80
2012,08,15,05,17,17.90
2012,08,15,05,18,17.90
2012,08,15,05,19,17.90
2012,08,15,05,20,17.90
2012,08,15,05,21,18.00
2012,08,15,05,22,18.00
2012,08,15,05,23,18.10
2012,08,15,05,24,18.10
2012,08,15,05,25,18.10
2012,08,15,05,26,18.10
2012,08,15,05,27,18.10
2012,08,15,05,28,18.10
2012,08,15,05,29,18.10
2012,08,15,05,30,18.20
2012,08,15,05,31,18.20
2012,08,15,05,32,18.20
2012,08,15,05,33,18.20
2012,08,15,05,34,18.20
2012,08,15,05,35,18.30
2012,08,15,05,36,18.30
2012,08,15,05,37,18.30
2012,08,15,05,38,18.30
2012,08,15,05,39,18.30
2012,08,15,05,40,18.20
2012,08,15,05,41,18.10
2012,08,15,05,42,18.10
2012,08,15,05,43,18.00
2012,08,15,05,44,17.90
2012,08,15,05,45,17.80
2012,08,15,05,46,17.70
2012,08,15,05,47,17.60
2012,08,15,05,48,17.40
2012,08,15,05,49,17.30
2012,08,15,05,50,17.20
2012,08,15,05,51,17.00
2012,08,15,05,52,16.90
2012,08,15,05,53,16.80
2012,08,15,05,54,16.70
2012,08,15,05,55,16.60
2012,08,15,05,56,16.50
2012,08,15,05,57,16.40
2012,08,15,05,58,16.30
2012,08,15,05,59,16.20
2012,08,15,06,00,16.20
2012,08,15,06,01,16.20
2012,08,15,06,02,16.10
2012,08,15,06,03,16.10
2012,08,15,06,04,16.00
2012,08,15,06,05,16.00
2012,08,15,06,06,15.90
2012,08,15,06,07,15.90
2012,08,15,06,08,15.90
2012,08,15,06,09,15.80
2012,08,15,06,10,15.80
2012,08,15,06,11,15.80
2012,08,15,06,12,15.80
2012,08,15,06,13,15.70
2012,08,15,06,14,15.70
2012,08,15,06,15,15.70
2012,08,15,06,16,15.70
2012,08,15,06,17,15.70
2012,08,15,06,18,15.70
2012,08,15,06,19,15.80
2012,08,15,06,20,15.80
2012,08,15,06,21,15.90
2012,08,15,06,22,16.00
2012,08,15,06,23,16.10
2012,08,15,06,24,16.20
2012,08,15,06,25,16.40
2012,08,15,06,26,16.50
2012,08,15,06,27,16.70
2012,08,15,06,28,16.90
2012,08,15,06,29,17.00
2012,08,15,06,30,17.10
2012,08,15,06,31,17.20
2012,08,15,06,32,17.30
2012,08,15,06,33,17.40
2012,08,15,06,34,17.50
2012,08,15,06,35,17.60
2012,08,15,06,36,17.70
2012,08,15,06,37,17.80
2012,08,15,06,38,17.80
2012,08,15,06,39,17.90
2012,08,15,06,40,18.00
2012,08,15,06,41,18.10
2012,08,15,06,42,18.10
2012,08,15,06,43,18.20
2012,08,15,06,44,18.30
2012,08,15,06,45,18.40
2012,08,15,06,46,18.40
2012,08,15,06,47,18.40
2012,08,15,06,48,18.40
2012,08,15,06,49,18.50
2012,08,15,06,50,18.60
2012,08,15,06,51,18.60
2012,08,15,06,52,18.70
2012,08,15,06,53,18.80
2012,08,15,06,54,18.80
2012,08,15,06,55,18.80
2012,08,15,06,56,18.90
2012,08,15,06,57,18.90
2012,08,15,06,58,18.90
2012,08,15,06,59,18.90
2012,08,15,07,00,18.90
2012,08,15,07,01,18.90
2012,08,15,07,02,18.90
2012,08,15,07,03,18.90
2012,08,15,07,04,19.00
2012,08,15,07,05,19.10
2012,08,15,07,06,19.10
2012,08,15,07,07,19.10
2012,08,15,07,08,19.20
2012,08,15,07,09,19.20
2012,08,15,07,10,19.30
2012,08,15,07,11,19.30
2012,08,15,07,12,19.30
2012,08,15,07,13,19.40
2012,08,15,07,14,19.40
2012,08,15,07,15,19.40
2012,08,15,07,16,19.40
2012,08,15,07,17,19.40
2012,08,15,07,18,19.40
2012,08,15,07,19,19.50
2012,08,15,07,20,19.50
2012,08,15,07,21,19.50
2012,08,15,07,22,19.60
2012,08,15,07,23,19.60
2012,08,15,07,24,19.70
2012,08,15,07,25,19.70
2012,08,15,07,26,19.80
2012,08,15,07,27,19.80
2012,08,15,07,28,19.80
2012,08,15,07,29,19.90
2012,08,15,07,30,19.90
2012,08,15,07,31,19.90
2012,08,15,07,32,20.00
2012,08,15,07,33,20.00
2012,08,15,07,34,20.00
2012,08,15,07,35,20.10
2012,08,15,07,36,20.10
2012,08,15,07,37,20.10
2012,08,15,07,38,20.20
2012,08,15,07,39,20.20
2012,08,15,07,40,20.30
2012,08,15,07,41,20.30
2012,08,15,07,42,20.30
2012,08,15,07,43,20.40
2012,08,15,07,44,20.40
2012,08,15,07,45,20.50
2012,08,15,07,46,20.50
2012,08,15,07,47,20.60
2012,08,15,07,48,20.60
2012,08,15,07,49,20.70
2012,08,15,07,50,20.70
2012,08,15,07,51,20.80
2012,08,15,07,52,20.80
2012,08,15,07,53,20.80
2012,08,15,07,54,20.90
2012,08,15,07,55,20.90
2012,08,15,07,56,20.90
2012,08,15,07,57,21.00
2012,08,15,07,58,21.00
2012,08,15,07,59,21.10
2012,08,15,08,00,21.10
2012,08,15,08,01,21.20
2012,08,15,08,02,21.20
2012,08,15,08,03,21.20
2012,08,15,08,04,21.30
2012,08,15,08,05,21.30
2012,08,15,08,06,21.40
2012,08,15,08,07,21.40
2012,08,15,08,08,21.50
2012,08,15,08,09,21.50
2012,08,15,08,10,21.60
2012,08,15,08,11,21.60
2012,08,15,08,12,21.60
2012,08,15,08,13,21.60
2012,08,15,08,14,21.70
2012,08,15,08,15,21.70
2012,08,15,08,16,21.70
2012,08,15,08,17,21.80
2012,08,15,08,18,21.80
2012,08,15,08,19,21.80
2012,08,15,08,20,21.90
2012,08,15,08,21,21.90
2012,08,15,08,22,21.90
2012,08,15,08,23,22.00
2012,08,15,08,24,22.00
2012,08,15,08,25,22.00
2012,08,15,08,26,22.10
2012,08,15,08,27,22.10
2012,08,15,08,28,22.10
2012,08,15,08,29,22.20
2012,08,15,08,30,22.20
2012,08,15,08,31,22.20
2012,08,15,08,32,22.20
2012,08,15,08,33,22.30
2012,08,15,08,34,22.30
2012,08,15,08,35,22.30
2012,08,15,08,36,22.40
2012,08,15,08,37,22.40
2012,08,15,08,38,22.50
2012,08,15,08,39,22.50
2012,08,15,08,40,22.50
2012,08,15,08,41,22.60
2012,08,15,08,42,22.60
2012,08,15,08,43,22.60
2012,08,15,08,44,22.60
2012,08,15,08,45,22.60
2012,08,15,08,46,22.70
2012,08,15,08,47,22.70
2012,08,15,08,48,22.70
2012,08,15,08,49,22.80
2012,08,15,08,50,22.80
2012,08,15,08,51,22.80
2012,08,15,08,52,22.90
2012,08,15,08,53,22.90
2012,08,15,08,54,23.00
2012,08,15,08,55,23.00
2012,08,15,08,56,23.00
2012,08,15,08,57,23.10
2012,08,15,08,58,23.10
2012,08,15,08,59,23.20
2012,08,15,09,00,23.20
2012,08,15,09,01,23.20
2012,08,15,09,02,23.20
2012,08,15,09,03,23.30
2012,08,15,09,04,23.30
2012,08,15,09,05,23.30
2012,08,15,09,06,23.40
2012,08,15,09,07,23.40
2012,08,15,09,08,23.40
2012,08,15,09,09,23.40
2012,08,15,09,10,23.40
2012,08,15,09,11,23.40
2012,08,15,09,12,23.50
2012,08,15,09,13,23.50
2012,08,15,09,14,23.50
2012,08,15,09,15,23.60
2012,08,15,09,16,23.60
2012,08,15,09,17,23.60
2012,08,15,09,18,23.60
2012,08,15,09,19,23.70
2012,08,15,09,20,23.70
2012,08,15,09,21,23.80
2012,08,15,09,22,23.80
2012,08,15,09,23,23.80
2012,08,15,09,24,23.90
2012,08,15,09,25,23.90
2012,08,15,09,26,24.00
2012,08,15,09,27,24.00
2012,08,15,09,28,24.10
2012,08,15,09,29,24.10
2012,08,15,09,30,24.10
2012,08,15,09,31,24.20
2012,08,15,09,32,24.20
2012,08,15,09,33,24.20
2012,08,15,09,34,24.30
2012,08,15,09,35,24.30
2012,08,15,09,36,24.40
2012,08,15,09,37,24.40
2012,08,15,09,38,24.50
2012,08,15,09,39,24.50
2012,08,15,09,40,24.60
2012,08,15,09,41,24.60
2012,08,15,09,42,24.60
2012,08,15,09,43,24.60
2012,08,15,09,44,24.60
2012,08,15,09,45,24.60
2012,08,15,09,46,24.60
2012,08,15,09,47,24.60
2012,08,15,09,48,24.60
2012,08,15,09,49,24.70
2012,08,15,09,50,24.70
2012,08,15,09,51,24.70
2012,08,15,09,52,24.70
2012,08,15,09,53,24.70
2012,08,15,09,54,24.60
2012,08,15,09,55,24.60
2012,08,15,09,56,24.60
2012,08,15,09,57,24.60
2012,08,15,09,58,24.60
2012,08,15,09,59,24.60
2012,08,15,10,00,24.60
2012,08,15,10,01,24.70
2012,08,15,10,02,24.70
2012,08,15,10,03,24.70
2012,08,15,10,04,24.80
2012,08,15,10,05,24.80
2012,08,15,10,06,24.80
2012,08,15,10,07,24.80
2012,08,15,10,08,24.80
2012,08,15,10,09,24.80
2012,08,15,10,10,24.80
2012,08,15,10,11,24.90
2012,08,15,10,12,24.90
2012,08,15,10,13,25.00
2012,08,15,10,14,25.10
2012,08,15,10,15,25.10
2012,08,15,10,16,25.20
2012,08,15,10,17,25.20
2012,08,15,10,18,25.30
2012,08,15,10,19,25.40
2012,08,15,10,20,25.40
2012,08,15,10,21,25.40
2012,08,15,10,22,25.40
2012,08,15,10,23,25.40
2012,08,15,10,24,25.40
2012,08,15,10,25,25.50
2012,08,15,10,26,25.50
2012,08,15,10,27,25.60
2012,08,15,10,28,25.70
2012,08,15,10,29,25.80
2012,08,15,10,30,25.90
2012,08,15,10,31,25.90
2012,08,15,10,32,25.90
2012,08,15,10,33,26.00
2012,08,15,10,34,26.00
2012,08,15,10,35,26.10
2012,08,15,10,36,26.20
2012,08,15,10,37,26.20
2012,08,15,10,38,26.20
2012,08,15,10,39,26.30
2012,08,15,10,40,26.30
2012,08,15,10,41,26.30
2012,08,15,10,42,26.30
2012,08,15,10,43,26.30
2012,08,15,10,44,26.30
2012,08,15,10,45,26.30
2012,08,15,10,46,26.30
2012,08,15,10,47,26.30
2012,08,15,10,48,26.40
2012,08,15,10,49,26.30
2012,08,15,10,50,26.30
2012,08,15,10,51,26.30
2012,08,15,10,52,26.20
2012,08,15,10,53,26.20
2012,08,15,10,54,26.20
2012,08,15,10,55,26.20
2012,08,15,10,56,26.20
2012,08,15,10,57,26.20
2012,08,15,10,58,26.20
2012,08,15,10,59,26.30
2012,08,15,11,00,26.30
2012,08,15,11,01,26.30
2012,08,15,11,02,26.30
2012,08,15,11,03,26.30
2012,08,15,11,04,26.40
2012,08,15,11,05,26.50
2012,08,15,11,06,26.60
2012,08,15,11,07,26.70
2012,08,15,11,08,26.80
2012,08,15,11,09,26.80
2012,08,15,11,10,26.80
2012,08,15,11,11,26.80
2012,08,15,11,12,26.70
2012,08,15,11,13,26.60
2012,08,15,11,14,26.60
2012,08,15,11,15,26.70
2012,08,15,11,16,26.70
2012,08,15,11,17,26.80
2012,08,15,11,18,26.90
2012,08,15,11,19,27.00
2012,08,15,11,20,27.20
2012,08,15,11,21,27.20
2012,08,15,11,22,27.30
2012,08,15,11,23,27.40
2012,08,15,11,24,27.50
2012,08,15,11,25,27.60
2012,08,15,11,26,27.60
2012,08,15,11,27,27.60
2012,08,15,11,28,27.60
2012,08,15,11,29,27.50
2012,08,15,11,30,27.50
2012,08,15,11,31,27.50
2012,08,15,11,32,27.60
2012,08,15,11,33,27.60
2012,08,15,11,34,27.60
2012,08,15,11,35,27.60
2012,08,15,11,36,27.70
2012,08,15,11,37,27.70
2012,08,15,11,38,27.80
2012,08,15,11,39,27.90
2012,08,15,11,40,27.80
2012,08,15,11,41,27.80
2012,08,15,11,42,27.80
2012,08,15,11,43,27.80
2012,08,15,11,44,27.80
2012,08,15,11,45,28.00
2012,08,15,11,46,28.20
2012,08,15,11,47,28.30
2012,08,15,11,48,28.30
2012,08,15,11,49,28.30
2012,08,15,11,50,28.30
2012,08,15,11,51,28.30
2012,08,15,11,52,28.20
2012,08,15,11,53,28.20
2012,08,15,11,54,28.20
2012,08,15,11,55,28.20
2012,08,15,11,56,28.20
2012,08,15,11,57,28.20
2012,08,15,11,58,28.20
2012,08,15,11,59,28.10
2012,08,15,12,00,28.20
2012,08,15,12,01,28.20
2012,08,15,12,02,28.20
2012,08,15,12,03,28.30
2012,08,15,12,04,28.40
2012,08,15,12,05,28.40
2012,08,15,12,06,28.30
2012,08,15,12,07,28.30
2012,08,15,12,08,28.30
2012,08,15,12,09,28.40
2012,08,15,12,10,28.50
2012,08,15,12,11,28.60
2012,08,15,12,12,28.60
2012,08,15,12,13,28.50
2012,08,15,12,14,28.50
2012,08,15,12,15,28.50
2012,08,15,12,16,28.50
2012,08,15,12,17,28.40
2012,08,15,12,18,28.40
2012,08,15,12,19,28.40
2012,08,15,12,20,28.40
2012,08,15,12,21,28.40
2012,08,15,12,22,28.40
2012,08,15,12,23,28.40
2012,08,15,12,24,28.50
2012,08,15,12,25,28.60
2012,08,15,12,26,28.60
2012,08,15,12,27,28.60
2012,08,15,12,28,28.60
2012,08,15,12,29,28.60
2012,08,15,12,30,28.70
2012,08,15,12,31,28.70
2012,08,15,12,32,28.70
2012,08,15,12,33,28.60
2012,08,15,12,34,28.60
2012,08,15,12,35,28.70
2012,08,15,12,36,28.70
2012,08,15,12,37,28.70
2012,08,15,12,38,28.70
2012,08,15,12,39,28.70
2012,08,15,12,40,28.80
2012,08,15,12,41,28.80
2012,08,15,12,42,28.80
2012,08,15,12,43,28.90
2012,08,15,12,44,28.90
2012,08,15,12,45,29.10
2012,08,15,12,46,29.20
2012,08,15,12,47,29.30
2012,08,15,12,48,29.40
2012,08,15,12,49,29.40
2012,08,15,12,50,29.50
2012,08,15,12,51,29.60
2012,08,15,12,52,29.60
2012,08,15,12,53,29.50
2012,08,15,12,54,29.40
2012,08,15,12,55,29.30
2012,08,15,12,56,29.30
2012,08,15,12,57,29.20
2012,08,15,12,58,29.20
2012,08,15,12,59,29.20
2012,08,15,13,00,29.20
2012,08,15,13,01,29.20
2012,08,15,13,02,29.20
2012,08,15,13,03,29.20
2012,08,15,13,04,29.30
2012,08,15,13,05,29.40
2012,08,15,13,06,29.40
2012,08,15,13,07,29.40
2012,08,15,13,08,29.40
2012,08,15,13,09,29.50
2012,08,15,13,10,29.60
2012,08,15,13,11,29.70
2012,08,15,13,12,29.70
2012,08,15,13,13,29.70
2012,08,15,13,14,29.80
2012,08,15,13,15,29.90
2012,08,15,13,16,29.90
2012,08,15,13,17,29.90
2012,08,15,13,18,29.90
2012,08,15,13,19,29.90
2012,08,15,13,20,29.90
2012,08,15,13,21,29.90
2012,08,15,13,22,29.90
2012,08,15,13,23,29.90
2012,08,15,13,24,29.90
2012,08,15,13,25,29.90
2012,08,15,13,26,29.90
2012,08,15,13,27,30.00
2012,08,15,13,28,30.10
2012,08,15,13,29,30.30
2012,08,15,13,30,30.40
2012,08,15,13,31,30.60
2012,08,15,13,32,30.70
2012,08,15,13,33,30.70
2012,08,15,13,34,30.70
2012,08,15,13,35,30.60
2012,08,15,13,36,30.60
2012,08,15,13,37,30.60
2012,08,15,13,38,30.60
2012,08,15,13,39,30.60
2012,08,15,13,40,30.70
2012,08,15,13,41,30.60
2012,08,15,13,42,30.60
2012,08,15,13,43,30.50
2012,08,15,13,44,30.50
2012,08,15,13,45,30.40
2012,08,15,13,46,30.40
2012,08,15,13,47,30.40
2012,08,15,13,48,30.50
2012,08,15,13,49,30.60
2012,08,15,13,50,30.70
2012,08,15,13,51,30.80
2012,08,15,13,52,30.90
2012,08,15,13,53,31.00
2012,08,15,13,54,31.10
2012,08,15,13,55,31.30
2012,08,15,13,56,31.20
2012,08,15,13,57,31.20
2012,08,15,13,58,31.30
2012,08,15,13,59,31.30
2012,08,15,14,00,31.30
2012,08,15,14,01,31.20
2012,08,15,14,02,31.10
2012,08,15,14,03,31.10
2012,08,15,14,04,31.00
2012,08,15,14,05,30.90
2012,08,15,14,06,31.00
2012,08,15,14,07,31.10
2012,08,15,14,08,31.20
2012,08,15,14,09,31.30
2012,08,15,14,10,31.30
2012,08,15,14,11,31.50
2012,08,15,14,12,31.60
2012,08,15,14,13,31.60
2012,08,15,14,14,31.70
2012,08,15,14,15,31.80
2012,08,15,14,16,31.70
2012,08,15,14,17,31.70
2012,08,15,14,18,31.60
2012,08,15,14,19,31.40
2012,08,15,14,20,31.20
2012,08,15,14,21,31.10
2012,08,15,14,22,31.10
2012,08,15,14,23,31.10
2012,08,15,14,24,31.20
2012,08,15,14,25,31.30
2012,08,15,14,26,31.40
2012,08,15,14,27,31.40
2012,08,15,14,28,31.50
2012,08,15,14,29,31.60
2012,08,15,14,30,31.70
2012,08,15,14,31,31.70
2012,08,15,14,32,31.60
2012,08,15,14,33,31.60
2012,08,15,14,34,31.50
2012,08,15,14,35,31.40
2012,08,15,14,36,31.40
2012,08,15,14,37,31.30
2012,08,15,14,38,31.20
2012,08,15,14,39,31.20
2012,08,15,14,40,31.20
2012,08,15,14,41,31.30
2012,08,15,14,42,31.30
2012,08,15,14,43,31.40
2012,08,15,14,44,31.40
2012,08,15,14,45,31.40
2012,08,15,14,46,31.40
2012,08,15,14,47,31.40
2012,08,15,14,48,31.30
2012,08,15,14,49,31.20
2012,08,15,14,50,31.20
2012,08,15,14,51,31.00
2012,08,15,14,52,31.00
2012,08,15,14,53,30.90
2012,08,15,14,54,30.80
2012,08,15,14,55,30.80
2012,08,15,14,56,30.80
2012,08,15,14,57,30.90
2012,08,15,14,58,30.90
2012,08,15,14,59,31.00
2012,08,15,15,00,31.00
2012,08,15,15,01,31.10
2012,08,15,15,02,31.10
2012,08,15,15,03,31.20
2012,08,15,15,04,31.20
2012,08,15,15,05,31.30
2012,08,15,15,06,31.20
2012,08,15,15,07,31.10
2012,08,15,15,08,31.10
2012,08,15,15,09,31.10
2012,08,15,15,10,31.10
2012,08,15,15,11,31.10
2012,08,15,15,12,31.00
2012,08,15,15,13,31.00
2012,08,15,15,14,31.10
2012,08,15,15,15,31.20
2012,08,15,15,16,31.30
2012,08,15,15,17,31.40
2012,08,15,15,18,31.40
2012,08,15,15,19,31.30
2012,08,15,15,20,31.30
2012,08,15,15,21,31.30
2012,08,15,15,22,31.20
2012,08,15,15,23,31.20
2012,08,15,15,24,31.20
2012,08,15,15,25,31.20
2012,08,15,15,26,31.20
2012,08,15,15,27,31.20
2012,08,15,15,28,31.20
2012,08,15,15,29,31.20
2012,08,15,15,30,31.30
2012,08,15,15,31,31.40
2012,08,15,15,32,31.40
2012,08,15,15,33,31.50
2012,08,15,15,34,31.60
2012,08,15,15,35,31.70
2012,08,15,15,36,31.70
2012,08,15,15,37,31.70
2012,08,15,15,38,31.80
2012,08,15,15,39,31.90
2012,08,15,15,40,31.90
2012,08,15,15,41,32.10
2012,08,15,15,42,32.20
2012,08,15,15,43,32.10
2012,08,15,15,44,32.10
2012,08,15,15,45,32.00
2012,08,15,15,46,32.00
2012,08,15,15,47,31.90
2012,08,15,15,48,31.90
2012,08,15,15,49,31.80
2012,08,15,15,50,31.80
2012,08,15,15,51,31.80
2012,08,15,15,52,31.90
2012,08,15,15,53,31.90
2012,08,15,15,54,31.90
2012,08,15,15,55,31.90
2012,08,15,15,56,31.80
2012,08,15,15,57,31.70
2012,08,15,15,58,31.70
2012,08,15,15,59,31.70
2012,08,15,16,00,31.70
2012,08,15,16,01,31.70
2012,08,15,16,02,31.70
2012,08,15,16,03,31.70
2012,08,15,16,04,31.80
2012,08,15,16,05,31.80
2012,08,15,16,06,31.70
2012,08,15,16,07,31.60
2012,08,15,16,08,31.60
2012,08,15,16,09,31.60
2012,08,15,16,10,31.60
2012,08,15,16,11,31.50
2012,08,15,16,12,31.50
2012,08,15,16,13,31.50
2012,08,15,16,14,31.60
2012,08,15,16,15,31.60
2012,08,15,16,16,31.70
2012,08,15,16,17,31.70
2012,08,15,16,18,31.70
2012,08,15,16,19,31.70
2012,08,15,16,20,31.70
2012,08,15,16,21,31.80
2012,08,15,16,22,31.80
2012,08,15,16,23,31.90
2012,08,15,16,24,31.90
2012,08,15,16,25,31.90
2012,08,15,16,26,31.90
2012,08,15,16,27,32.00
2012,08,15,16,28,32.10
2012,08,15,16,29,32.10
2012,08,15,16,30,32.10
2012,08,15,16,31,32.10
2012,08,15,16,32,32.10
2012,08,15,16,33,32.00
2012,08,15,16,34,31.90
2012,08,15,16,35,31.80
2012,08,15,16,36,31.80
2012,08,15,16,37,31.70
2012,08,15,16,38,31.60
2012,08,15,16,39,31.60
2012,08,15,16,40,31.60
2012,08,15,16,41,31.60
2012,08,15,16,42,31.60
2012,08,15,16,43,31.60
2012,08,15,16,44,31.70
2012,08,15,16,45,31.80
2012,08,15,16,46,31.80
2012,08,15,16,47,31.90
2012,08,15,16,48,31.90
2012,08,15,16,49,31.90
2012,08,15,16,50,31.90
2012,08,15,16,51,32.00
2012,08,15,16,52,32.00
2012,08,15,16,53,31.90
2012,08,15,16,54,31.90
2012,08,15,16,55,31.90
2012,08,15,16,56,31.90
2012,08,15,16,57,31.90
2012,08,15,16,58,31.90
2012,08,15,16,59,31.90
2012,08,15,17,00,31.90
2012,08,15,17,01,31.80
2012,08,15,17,02,31.70
2012,08,15,17,03,31.50
2012,08,15,17,04,31.40
2012,08,15,17,05,31.20
2012,08,15,17,06,31.10
2012,08,15,17,07,31.10
2012,08,15,17,08,31.00
2012,08,15,17,09,31.00
2012,08,15,17,10,30.90
2012,08,15,17,11,30.90
2012,08,15,17,12,30.80
2012,08,15,17,13,30.90
2012,08,15,17,14,30.90
2012,08,15,17,15,31.00
2012,08,15,17,16,31.10
2012,08,15,17,17,31.20
2012,08,15,17,18,31.30
2012,08,15,17,19,31.40